Temp
-17 -17 -17 -17 -17 -16 -16 -16 -16 -16 -16 -16 -16 -16 -15 -15 -15 -15 -15 -15 -15 -15 -15 -15 -15 -15 -15 -15 -15 -15 -15 -15 -15 -15 -15 -15 -15 -15 -15 -15 -14 -14
-17 -17 -17 -17 -17 -17 -17 -16 -16 -16 -16 -16 -16 -16 -16 -16 -16 -16 -16 -16 -16 -16 -16 -16 -16 -15 -15 -15 -15 -15 -15 -15 -15 -15 -15 -15 -15 -15 -15 -15 -15 -15
-17 -17 -17 -17 -17 -17 -17 -17 -16 -16 -16 -16 -16 -16 -16 -16 -16 -16 -16 -16 -16 -16 -16 -16 -16 -16 -16 -16 -16 -16 -16 -16 -15 -15 -15 -15 -15 -15 -15 -15 -15 -15
-18 -18 -18 -18 -17 -17 -17 -17 -17 -17 -16 -16 -16 -16 -16 -16 -16 -16 -16 -16 -16 -16 -16 -16 -16 -16 -16 -16 -16 -16 -16 -16 -16 -16 -16 -16 -16 -16 -16 -16 -16 -16
-18 -18 -18 -18 -18 -17 -17 -17 -17 -17 -17 -17 -17 -17 -17 -17 -17 -17 -17 -17 -16 -16 -16 -16 -16 -16 -16 -16 -16 -16 -16 -16 -16 -16 -16 -16 -16 -16 -16 -16 -16 -16
-18 -18 -18 -18 -18 -18 -18 -18 -17 -17 -17 -17 -17 -17 -17 -17 -17 -17 -17 -17 -17 -17 -17 -17 -17 -17 -17 -17 -17 -17 -17 -17 -17 -17 -17 -17 -17 -17 -17 -16 -16 -16
-18 -18 -18 -18 -18 -18 -18 -18 -18 -18 -17 -17 -17 -17 -17 -17 -18 -18 -18 -18 -17 -17 -17 -17 -17 -17 -17 -17 -17 -17 -17 -17 -17 -17 -17 -17 -17 -17 -17 -17 -17 -17
-18 -18 -18 -18 -18 -18 -18 -18 -18 -18 -18 -18 -18 -18 -18 -18 -18 -18 -18 -18 -18 -18 -18 -17 -17 -17 -17 -17 -17 -17 -17 -17 -17 -17 -17 -17 -17 -17 -17 -17 -17 -17
-18 -18 -18 -18 -18 -18 -18 -18 -18 -18 -18 -18 -18 -18 -18 -18 -18 -18 -18 -18 -18 -18 -18 -18 -18 -18 -17 -17 -17 -17 -17 -17 -17 -17 -17 -17 -17 -17 -17 -17 -17 -17
-18 -18 -18 -18 -18 -18 -18 -18 -18 -18 -18 -18 -18 -18 -18 -18 -18 -18 -18 -18 -18 -18 -18 -18 -18 -18 -18 -18 -18 -18 -18 -18 -18 -18 -18 -18 -18 -18 -18 -18 -18 -18
-18 -18 -18 -18 -18 -18 -18 -18 -18 -18 -18 -18 -18 -18 -18 -18 -18 -18 -18 -18 -19 -18 -18 -18 -18 -18 -18 -18 -18 -18 -18 -18 -18 -18 -18 -18 -18 -18 -18 -18 -18 -18
-19 -19 -19 -18 -18 -18 -18 -18 -18 -18 -18 -18 -18 -18 -18 -18 -18 -18 -18 -18 -19 -19 -19 -18 -18 -18 -18 -18 -18 -18 -18 -18 -18 -18 -18 -18 -18 -18 -18 -18 -18 -18
-19 -19 -19 -19 -19 -19 -19 -18 -18 -18 -18 -18 -18 -18 -18 -18 -18 -18 -18 -18 -18 -19 -19 -18 -18 -18 -18 -18 -19 -18 -18 -18 -18 -18 -18 -18 -18 -18 -18 -18 -18 -18
-19 -19 -19 -19 -19 -19 -18 -18 -18 -18 -18 -18 -18 -18 -18 -18 -18 -18 -18 -18 -18 -19 -19 -18 -18 -18 -18 -18 -19 -19 -19 -19 -19 -19 -18 -18 -18 -18 -18 -18 -18 -18
-20 -20 -19 -19 -19 -19 -19 -19 -19 -19 -19 -18 -18 -18 -18 -18 -18 -18 -18 -18 -18 -19 -19 -19 -18 -18 -18 -18 -19 -19 -19 -19 -19 -19 -19 -18 -18 -18 -18 -18 -18 -18
-20 -20 -20 -20 -20 -20 -20 -19 -19 -19 -19 -19 -19 -18 -19 -19 -19 -19 -18 -18 -18 -19 -19 -19 -19 -18 -18 -19 -19 -19 -19 -19 -19 -19 -19 -19 -18 -18 -18 -18 -18 -18
-19 -20 -20 -20 -20 -20 -20 -20 -20 -19 -19 -19 -19 -19 -19 -19 -18 -19 -19 -18 -19 -19 -19 -19 -19 -19 -19 -19 -19 -19 -19 -19 -19 -19 -19 -19 -18 -18 -18 -18 -18 -18
-20 -20 -20 -20 -20 -20 -20 -20 -20 -20 -20 -20 -20 -19 -19 -19 -19 -19 -19 -19 -19 -19 -19 -19 -19 -19 -19 -19 -19 -19 -19 -19 -18 -18 -19 -19 -19 -18 -18 -18 -18 -18
-20 -20 -20 -20 -20 -20 -20 -20 -20 -20 -20 -20 -20 -20 -20 -20 -19 -19 -19 -20 -19 -19 -19 -19 -19 -19 -19 -19 -19 -19 -19 -19 -19 -18 -18 -18 -18 -19 -19 -19 -19 -18
-20 -20 -20 -21 -21 -21 -21 -21 -21 -21 -21 -21 -21 -21 -21 -20 -20 -20 -20 -20 -20 -20 -20 -20 -19 -19 -19 -19 -19 -19 -19 -19 -19 -19 -18 -18 -18 -19 -19 -19 -19 -19
-21 -21 -21 -21 -21 -21 -21 -21 -22 -22 -21 -21 -21 -21 -21 -21 -21 -21 -21 -20 -20 -20 -20 -20 -20 -20 -20 -19 -19 -20 -19 -19 -19 -19 -19 -19 -19 -19 -19 -19 -19 -19
-21 -21 -21 -21 -21 -21 -21 -21 -21 -21 -21 -21 -21 -21 -21 -21 -21 -21 -21 -21 -21 -20 -20 -20 -20 -20 -20 -20 -20 -20 -20 -19 -19 -19 -19 -19 -19 -19 -19 -19 -19 -19
-21 -21 -21 -21 -21 -21 -21 -21 -21 -21 -21 -21 -21 -21 -21 -21 -21 -21 -21 -21 -21 -20 -20 -20 -20 -20 -20 -20 -20 -20 -20 -20 -20 -19 -19 -19 -19 -19 -19 -19 -19 -19
-21 -21 -21 -21 -21 -21 -21 -21 -21 -21 -21 -21 -21 -21 -21 -21 -21 -21 -21 -21 -21 -20 -20 -20 -20 -20 -20 -20 -20 -20 -20 -20 -20 -20 -20 -20 -20 -20 -19 -19 -19 -19
-21 -21 -21 -21 -21 -21 -21 -21 -21 -21 -21 -21 -21 -21 -21 -21 -21 -21 -21 -21 -21 -21 -20 -20 -20 -21 -20 -20 -20 -20 -21 -21 -21 -20 -20 -20 -20 -20 -20 -20 -20 -20
-22 -22 -22 -22 -22 -22 -22 -22 -22 -22 -22 -22 -22 -21 -21 -21 -21 -21 -21 -21 -21 -21 -21 -21 -21 -21 -21 -21 -20 -21 -21 -21 -21 -21 -21 -21 -21 -20 -20 -20 -20 -20
Height
5733 5733 5734 5734 5735 5735 5735 5734 5734 5734 5734 5734 5735 5735 5735 5735 5735 5735 5735 5736 5736 5736 5736 5736 5736 5737 5737 5738 5738 5738 5739 5739 5739 5739 5739 5740 5740 5741 5741 5742 5743 5743
5731 5731 5731 5732 5733 5733 5733 5733 5733 5732 5732 5732 5733 5733 5733 5733 5733 5733 5733 5734 5734 5734 5734 5734 5734 5735 5735 5735 5736 5736 5737 5737 5737 5738 5738 5738 5738 5739 5739 5740 5740 5741
5728 5728 5729 5730 5731 5731 5731 5731 5731 5730 5730 5730 5731 5731 5731 5731 5731 5731 5731 5732 5732 5732 5732 5733 5733 5733 5733 5733 5734 5734 5735 5735 5736 5736 5736 5736 5737 5737 5737 5738 5738 5739
5725 5725 5726 5727 5728 5728 5728 5728 5728 5728 5728 5728 5729 5729 5729 5729 5729 5730 5730 5730 5730 5730 5730 5731 5731 5731 5731 5732 5732 5732 5733 5733 5734 5734 5734 5735 5735 5735 5736 5736 5737 5737
5722 5723 5723 5724 5724 5725 5726 5726 5726 5726 5726 5726 5726 5727 5727 5727 5728 5728 5728 5728 5728 5728 5728 5729 5729 5729 5729 5730 5730 5730 5731 5731 5732 5732 5733 5733 5733 5734 5734 5734 5735 5735
5719 5720 5720 5721 5722 5722 5723 5723 5723 5723 5723 5723 5724 5724 5724 5725 5725 5726 5726 5727 5727 5727 5726 5726 5727 5727 5727 5727 5728 5728 5729 5729 5730 5730 5731 5731 5731 5732 5732 5732 5733 5733
5716 5717 5717 5718 5719 5719 5720 5721 5721 5721 5721 5721 5722 5722 5722 5723 5723 5723 5724 5725 5725 5725 5725 5725 5725 5725 5725 5725 5726 5726 5726 5727 5727 5728 5728 5728 5729 5729 5729 5730 5730 5731
5713 5714 5714 5715 5716 5716 5716 5717 5718 5719 5719 5719 5719 5720 5721 5721 5722 5721 5721 5722 5722 5723 5723 5723 5723 5723 5723 5723 5724 5724 5724 5725 5725 5725 5725 5726 5726 5726 5727 5727 5727 5728
5710 5711 5712 5712 5713 5713 5713 5714 5714 5716 5717 5717 5717 5717 5718 5719 5720 5720 5720 5719 5719 5719 5720 5721 5721 5721 5721 5721 5721 5721 5722 5722 5723 5723 5723 5723 5724 5724 5724 5725 5725 5725
5707 5708 5709 5709 5710 5710 5710 5710 5711 5712 5713 5714 5714 5715 5715 5716 5717 5718 5718 5718 5717 5717 5717 5718 5719 5719 5720 5719 5719 5719 5719 5720 5720 5721 5721 5721 5722 5722 5723 5723 5723 5723
5703 5704 5705 5706 5706 5706 5707 5707 5707 5708 5709 5711 5711 5712 5712 5712 5713 5714 5716 5716 5716 5716 5715 5715 5716 5716 5717 5717 5717 5717 5717 5717 5717 5718 5719 5719 5720 5720 5720 5721 5721 5721
5699 5700 5700 5701 5701 5702 5702 5703 5703 5703 5704 5706 5707 5707 5707 5708 5709 5710 5711 5712 5713 5713 5713 5712 5712 5713 5714 5714 5714 5714 5714 5714 5714 5715 5716 5716 5717 5717 5718 5718 5718 5718
5695 5696 5696 5697 5697 5697 5698 5698 5699 5699 5700 5701 5701 5702 5703 5704 5705 5706 5707 5708 5708 5709 5709 5709 5708 5709 5710 5710 5711 5711 5711 5711 5711 5711 5712 5713 5714 5714 5714 5714 5715 5715
5691 5691 5691 5692 5693 5693 5694 5694 5694 5695 5695 5696 5696 5697 5698 5699 5700 5701 5702 5702 5703 5703 5704 5704 5705 5705 5705 5706 5707 5708 5708 5707 5707 5707 5708 5709 5710 5710 5711 5711 5711 5711
5685 5686 5686 5687 5688 5688 5689 5689 5690 5690 5691 5691 5692 5692 5693 5694 5695 5696 5697 5697 5698 5698 5699 5699 5700 5701 5701 5701 5703 5704 5704 5704 5703 5704 5704 5705 5706 5706 5707 5708 5707 5707
5680 5680 5681 5681 5682 5682 5683 5683 5684 5685 5685 5686 5687 5687 5688 5689 5690 5691 5692 5692 5692 5693 5694 5694 5695 5696 5696 5696 5697 5699 5700 5700 5699 5699 5700 5701 5702 5702 5702 5703 5704 5703
5674 5675 5675 5675 5676 5676 5677 5677 5678 5678 5679 5680 5681 5681 5682 5683 5684 5686 5687 5686 5686 5687 5688 5689 5691 5692 5691 5691 5691 5692 5694 5695 5695 5695 5696 5696 5697 5697 5698 5699 5699 5699
5668 5668 5669 5669 5670 5671 5671 5671 5672 5672 5673 5673 5674 5675 5676 5677 5678 5679 5680 5681 5680 5680 5681 5683 5685 5686 5686 5686 5686 5686 5687 5689 5689 5690 5691 5691 5691 5692 5692 5693 5693 5693
5661 5662 5662 5663 5664 5664 5664 5665 5665 5666 5666 5667 5668 5669 5670 5671 5672 5672 5673 5673 5673 5673 5674 5676 5678 5680 5680 5680 5680 5680 5681 5682 5683 5684 5685 5685 5685 5686 5686 5686 5686 5686
5654 5655 5656 5656 5657 5657 5658 5659 5659 5660 5661 5661 5662 5662 5663 5664 5665 5665 5666 5666 5667 5667 5667 5668 5672 5673 5673 5673 5673 5673 5673 5674 5675 5677 5678 5679 5679 5679 5679 5679 5679 5680
5647 5648 5649 5649 5650 5651 5651 5652 5653 5654 5655 5655 5656 5656 5656 5657 5657 5659 5659 5659 5660 5661 5660 5662 5665 5666 5666 5666 5666 5666 5666 5666 5667 5669 5671 5672 5672 5672 5672 5672 5672 5673
5641 5642 5642 5643 5643 5644 5644 5645 5646 5647 5647 5648 5649 5649 5650 5650 5651 5652 5653 5654 5654 5654 5654 5656 5658 5659 5659 5659 5660 5660 5659 5659 5660 5662 5663 5664 5664 5664 5665 5665 5665 5665
5634 5635 5635 5636 5637 5637 5638 5638 5639 5639 5640 5641 5642 5642 5643 5644 5644 5645 5646 5647 5648 5648 5649 5651 5651 5651 5651 5652 5652 5653 5653 5653 5654 5655 5655 5656 5657 5657 5657 5658 5658 5658
5627 5628 5629 5629 5630 5630 5631 5631 5631 5632 5633 5633 5634 5635 5636 5636 5637 5638 5638 5640 5641 5643 5644 5644 5643 5642 5643 5643 5644 5645 5646 5646 5647 5647 5647 5648 5649 5649 5649 5650 5649 5649
5620 5621 5621 5622 5623 5623 5624 5624 5624 5625 5625 5626 5627 5627 5628 5629 5629 5630 5632 5634 5635 5636 5636 5637 5636 5635 5636 5636 5636 5638 5638 5638 5639 5639 5639 5640 5641 5641 5641 5641 5641 5641
5613 5613 5614 5615 5616 5616 5617 5617 5617 5618 5618 5618 5619 5620 5620 5621 5622 5624 5626 5628 5628 5628 5628 5629 5629 5628 5629 5630 5630 5630 5630 5630 5631 5632 5632 5632 5633 5633 5633 5633 5633 5633
Wind_Speed
18 16 15 15 16 17 18 18 19 19 19 19 19 18 18 18 18 18 18 18 18 18 19 19 19 19 19 19 19 20 20 21 21 21 21 20 20 20 20 20 19 20
18 16 15 16 17 18 19 19 19 20 20 20 19 19 18 18 18 18 18 18 18 18 18 18 18 18 19 19 19 19 20 20 20 21 20 20 19 19 19 19 18 18
19 18 17 18 19 19 20 20 20 21 21 21 20 20 19 19 19 18 19 19 19 19 19 18 18 18 18 18 18 19 19 19 20 20 20 19 19 19 18 18 18 17
20 19 19 19 20 21 21 21 21 21 21 21 21 21 20 20 20 19 19 19 19 19 19 19 19 18 17 17 17 18 18 18 19 19 19 18 18 18 18 18 18 17
22 22 21 21 21 22 22 22 21 21 21 21 21 21 21 21 21 20 20 19 19 19 19 19 20 19 19 18 17 17 17 17 17 17 18 17 17 17 17 17 17 17
24 23 23 23 23 23 23 23 22 22 21 21 21 21 21 20 20 20 20 18 17 17 18 19 19 20 20 20 19 18 18 18 18 17 17 17 16 16 16 16 17 17
27 27 26 25 24 24 24 24 23 23 22 21 20 21 21 21 20 19 18 18 17 16 17 17 18 18 19 20 20 20 19 19 19 19 18 18 17 17 17 17 17 17
30 30 29 28 26 26 25 25 25 24 23 22 21 21 21 22 21 19 18 18 17 17 17 17 17 17 17 18 18 19 19 19 20 20 20 20 20 19 19 19 18 18
32 31 30 30 29 29 28 28 27 26 24 23 23 22 22 22 22 22 21 20 19 18 19 18 18 18 17 17 17 17 18 18 19 19 20 20 20 20 20 20 20 20
33 32 33 34 34 34 32 31 30 29 28 27 26 25 24 24 24 24 24 23 22 21 20 20 20 20 20 19 18 18 18 18 18 19 19 19 20 20 19 20 20 20
35 33 33 35 37 38 37 35 34 33 32 30 29 28 28 27 26 25 26 26 25 24 23 22 22 22 22 22 21 21 20 20 20 20 20 20 20 20 20 20 20 20
35 34 33 33 34 36 36 37 37 37 36 35 34 33 32 31 29 28 28 28 27 26 26 26 25 25 24 24 24 23 23 23 23 23 23 22 21 22 22 22 22 22
37 37 36 35 35 35 36 36 36 37 37 37 37 37 35 35 33 31 31 30 30 29 29 29 29 29 28 27 26 25 25 25 26 26 26 26 25 25 25 25 25 25
40 41 41 41 41 41 40 40 39 39 39 38 38 39 39 38 36 34 32 33 34 34 33 32 30 30 30 30 29 28 27 26 27 28 28 28 28 28 28 28 29 29
43 43 44 44 44 44 44 45 44 43 42 41 41 41 41 41 38 35 33 32 31 31 32 32 32 32 33 33 31 30 29 29 30 31 31 31 30 31 32 32 33 34
46 46 46 46 46 45 45 46 47 47 46 45 45 46 45 44 42 39 37 38 37 35 32 32 34 35 36 37 34 31 31 32 34 35 36 35 35 35 36 36 37 38
50 49 49 48 48 48 47 47 48 48 48 47 47 48 49 49 49 46 44 46 48 47 42 39 38 38 39 41 40 37 34 34 36 38 39 40 40 40 40 40 41 41
52 51 51 51 51 50 50 49 48 48 49 49 49 49 50 51 52 51 50 50 53 52 49 47 46 45 44 45 45 43 40 38 40 41 41 42 42 42 42 42 43 44
50 50 50 50 50 49 49 49 49 48 48 48 49 49 50 51 52 53 52 52 52 53 51 50 49 49 49 49 48 47 46 44 44 45 45 44 44 44 44 44 45 46
49 49 49 49 49 49 48 48 49 48 47 49 50 51 51 52 52 52 53 53 52 52 52 52 50 50 51 52 51 50 49 49 48 48 48 47 47 47 47 47 48 48
50 50 50 50 50 50 50 50 50 50 50 51 52 53 54 54 53 53 53 54 54 53 54 54 52 51 51 53 53 52 52 53 53 52 51 50 50 50 50 50 50 50
51 51 51 51 51 52 52 53 53 53 53 54 54 55 55 56 57 56 55 55 56 57 57 57 55 53 52 52 52 53 54 55 55 55 54 53 53 53 53 53 53 53
51 51 51 52 52 52 53 53 53 53 54 55 56 57 57 58 59 60 58 57 57 57 58 58 57 55 53 52 52 52 54 54 54 54 54 55 55 55 55 54 54 54
51 51 52 52 52 53 53 53 54 54 54 55 56 57 58 59 59 59 58 57 56 56 56 56 55 55 54 54 53 52 52 52 52 52 53 53 54 54 54 54 54 54
51 52 52 52 53 53 53 54 54 54 54 55 55 56 56 57 57 57 57 56 55 54 54 53 53 54 54 54 53 52 51 51 51 51 51 52 52 52 52 52 53 53
50 51 52 53 53 53 54 54 54 55 55 55 55 55 56 56 56 56 55 54 54 53 53 53 53 53 53 53 53 52 51 51 50 50 51 51 51 51 51 51 52 52
Wind_Direction
270 273 278 282 281 277 275 274 275 274 274 273 272 271 271 271 272 272 272 272 271 271 271 272 273 273 272 271 270 270 270 270 270 271 271 272 271 269 268 265 260 256
271 274 278 281 279 276 274 274 274 274 274 275 274 274 273 273 273 274 274 273 272 272 271 271 272 273 274 274 274 274 273 273 273 273 273 273 273 272 271 270 268 264
271 274 276 279 277 273 272 273 272 271 272 274 275 275 275 275 274 274 275 275 274 273 272 270 270 270 271 273 274 275 276 276 276 276 277 276 275 274 273 272 272 270
268 271 273 274 272 270 269 269 269 270 271 273 275 277 278 278 278 276 274 274 274 273 272 271 269 267 267 268 270 272 274 276 276 277 278 278 277 275 274 273 273 272
264 267 269 268 266 265 264 265 266 267 268 271 274 277 280 281 282 281 279 276 274 273 272 270 268 266 264 263 263 265 268 270 273 275 276 277 277 276 274 272 272 272
261 263 265 264 263 262 260 260 261 261 262 265 269 273 277 279 282 284 283 281 278 275 273 270 268 266 264 262 261 260 261 264 266 268 270 272 273 273 274 273 271 270
258 260 260 260 260 260 260 258 257 258 259 260 264 269 273 274 276 278 279 279 278 275 273 271 269 267 265 264 262 261 260 261 263 265 267 267 268 268 268 269 269 269
258 259 259 259 260 260 259 256 257 258 259 260 261 264 269 271 270 269 269 272 273 271 270 268 266 266 265 264 263 263 261 260 261 263 265 265 266 266 265 265 265 266
260 260 260 260 261 262 260 258 258 259 260 261 260 260 263 266 267 265 264 264 264 264 266 267 265 264 263 262 262 262 261 260 259 259 260 262 264 266 268 268 267 267
262 262 264 264 262 261 260 260 259 260 262 263 262 263 264 263 262 263 263 262 260 260 263 265 266 266 265 264 262 262 261 261 260 259 259 260 262 264 266 268 268 268
261 263 267 267 264 260 259 260 260 262 263 261 260 263 264 263 262 260 261 261 259 260 262 263 264 265 265 264 262 262 262 262 262 261 260 260 259 261 262 262 263 264
261 264 266 267 266 263 262 263 263 263 264 262 260 261 262 264 264 261 259 258 256 257 259 259 259 259 260 261 262 261 261 262 264 263 262 262 262 261 261 260 260 259
262 264 265 264 264 265 265 266 265 264 267 268 265 263 265 267 266 262 260 258 256 257 257 256 257 258 257 256 256 258 259 260 262 264 264 264 265 265 265 265 266 264
263 263 264 264 264 264 265 266 266 266 269 270 267 264 265 267 267 264 264 263 260 258 256 254 255 257 257 256 254 253 256 259 260 262 265 265 266 267 268 270 272 272
265 265 265 266 265 265 265 266 267 267 267 268 269 268 266 267 266 263 262 263 261 259 256 252 252 254 257 261 259 252 250 255 258 260 262 263 264 266 267 269 271 273
264 265 265 265 265 265 264 265 266 267 267 266 267 268 268 268 267 263 258 256 259 266 265 257 255 256 258 263 267 261 253 252 256 260 262 262 262 263 265 267 269 271
262 263 263 264 264 265 265 264 264 266 266 266 265 266 267 267 268 267 264 261 263 269 270 266 263 263 262 264 269 270 265 259 258 261 262 263 264 265 266 268 270 271
261 261 262 263 263 264 265 265 265 264 265 266 266 266 266 267 268 269 268 267 267 269 269 268 267 267 266 266 267 270 270 267 264 263 263 264 265 265 267 268 270 271
260 260 261 262 263 263 264 264 265 265 265 266 267 267 267 267 268 269 269 269 269 270 269 267 266 266 267 268 268 269 270 268 266 264 264 265 265 266 267 268 268 269
260 259 260 260 261 261 262 263 263 264 266 268 269 269 269 269 268 269 270 271 271 271 271 270 268 268 268 269 270 271 271 270 267 266 265 266 266 267 269 270 270 270
260 260 259 259 259 259 259 260 260 260 260 263 265 267 268 269 270 269 269 271 272 271 271 272 272 270 269 270 271 272 272 271 270 270 269 268 268 269 270 271 272 273
260 260 260 259 259 259 259 259 259 259 257 257 258 260 262 264 267 268 268 269 270 271 271 272 273 272 270 269 269 269 270 270 270 271 271 270 269 270 270 271 272 274
261 261 261 261 260 260 260 260 260 260 259 258 258 258 259 260 263 266 267 268 268 269 270 271 272 272 271 270 269 269 269 269 270 270 270 270 270 270 271 271 272 272
261 261 262 262 262 262 262 262 262 261 261 261 261 260 260 261 263 265 266 267 268 268 269 270 270 271 271 271 271 271 271 271 271 271 271 271 271 271 271 272 271 272
262 262 262 262 262 263 263 263 264 264 263 263 263 263 263 263 264 264 265 267 268 269 269 268 269 270 271 271 272 273 273 272 272 272 272 272 271 271 271 271 272 272
263 263 262 262 262 262 262 263 263 264 264 264 264 264 264 264 264 265 266 267 268 268 268 268 269 269 270 271 272 273 273 273 273 272 272 272 272 272 272 272 272 272